EW1556 Weather Reports


Display with metric or nautical units.
time (UTC)temp
F
wind
direction
speed
MPH
gust
MPH
rain 1hr
in
rain 24hr
in
rain mn
in
humidity
%
barometer
mb
20260905221541 68 329 2.0 5.0 0.00 0.00 0.00 37 1015.0
20260905220041 69 246 4.0 8.0 0.00 0.00 0.00 37 1015.0
20260905214538 69 114 0.0 8.0 0.00 0.00 0.00 38 1015.0
20260905213033 67 82 2.0 10.0 0.00 0.00 0.00 40 1015.2
20260905211533 67 111 3.0 8.0 0.00 0.00 0.00 41 1015.3
20260905210041 65 44 3.0 8.0 0.00 0.00 0.00 44 1015.7
20260905204531 66 72 4.0 7.0 0.00 0.00 0.00 43 1015.6
20260905203029 66 215 3.0 5.0 0.00 0.00 0.00 43 1015.8
20260905201535 64 92 3.0 9.0 0.00 0.00 0.00 47 1015.8
20260905200038 63 51 6.0 9.0 0.00 0.00 0.00 53 1015.9
20260905194525 64 86 4.0 7.0 0.00 0.00 0.00 52 1016.0
20260905193028 65 76 7.0 10.0 0.00 0.00 0.00 51 1016.1
20260905191521 64 332 1.0 7.0 0.00 0.00 0.00 52 1016.2
20260905190018 63 72 4.0 9.0 0.00 0.00 0.00 55 1016.3
20260905184521 62 124 3.0 5.0 0.00 0.00 0.00 57 1016.4
20260905183021 61 67 3.0 6.0 0.00 0.00 0.00 60 1016.6
20260905181514 60 356 2.0 5.0 0.00 0.00 0.00 62 1016.8
20260905180008 59 174 2.0 5.0 0.00 0.00 0.00 67 1017.0
20260905174516 58 31 2.0 6.0 0.00 0.00 0.00 70 1017.1
20260905173005 57 113 2.0 8.0 0.00 0.00 0.00 68 1017.0
20260905171506 57 88 0.0 5.0 0.00 0.00 0.00 66 1017.2
20260905170002 57 219 0.0 11.0 0.00 0.00 0.00 66 1017.1
20260905164558 56 146 0.0 4.0 0.00 0.00 0.00 71 1017.2
20260905163103 55 139 0.0 6.0 0.00 0.00 0.00 70 1017.3
20260905161551 54 241 0.0 2.0 0.00 0.00 0.00 74 1017.1
20260905160055 54 269 1.0 2.0 0.00 0.00 0.00 75 1017.1
20260905154549 53 89 0.0 0.0 0.00 0.00 0.00 77 1017.1
20260905153043 51 207 0.0 1.0 0.00 0.00 0.00 80 1017.1
20260905151543 50 107 0.0 0.0 0.00 0.00 0.00 83 1017.1
20260905150042 49 279 0.0 0.0 0.00 0.00 0.00 85 1017.1
20260905144549 48 278 0.0 0.0 0.00 0.00 0.00 87 1017.0
20260905143040 46 279 0.0 0.0 0.00 0.00 0.00 89 1016.9
20260905141601 0 0.0 0.0 0.00 0.00 0.00 1016.9
20260905140032 0 0.0 0.0 0.00 0.00 0.00 1016.9
20260905134527 0 0.0 0.0 0.00 0.00 0.00 1016.7
20260905133034 44 273 1.0 3.0 0.00 0.00 0.00 85 1016.5
20260905131537 45 280 2.0 3.0 0.00 0.00 0.00 86 1016.4
20260905130023 46 290 1.0 3.0 0.00 0.00 0.00 88 1016.3
20260905124520 44 299 1.0 2.0 0.00 0.00 0.00 90 1016.2
20260905123017 42 283 0.0 0.0 0.00 0.00 0.00 88 1016.2
20260905121515 43 283 1.0 3.0 0.00 0.00 0.00 85 1016.1
20260905120011 45 287 0.0 0.0 0.00 0.00 0.00 87 1016.1
20260905114511 46 287 0.0 2.0 0.00 0.00 0.00 84 1016.2
20260905113008 46 122 0.0 0.0 0.00 0.00 0.00 84 1016.2
20260905111504 48 287 0.0 0.0 0.00 0.00 0.00 84 1016.1
20260905110002 48 288 0.0 0.0 0.00 0.00 0.00 81 1016.2
20260905104559 50 288 0.0 0.0 0.00 0.00 0.00 81 1016.0
20260905103059 51 287 0.0 0.0 0.00 0.00 0.00 79 1015.9
20260905101559 52 288 0.0 1.0 0.00 0.00 0.00 77 1015.9
20260905100113 52 311 2.0 4.0 0.00 0.00 0.00 77 1016.0
20260905094607 52 269 2.0 3.0 0.00 0.00 0.00 78 1016.0
20260905093058 52 268 1.0 2.0 0.00 0.00 0.00 78 1016.0
20260905091613 52 285 1.0 3.0 0.00 0.00 0.00 78 1016.0
20260905090054 52 291 2.0 3.0 0.00 0.00 0.00 79 1016.0
20260905084553 51 271 0.0 0.0 0.00 0.00 0.00 80 1016.0
20260905083050 52 286 2.0 5.0 0.00 0.00 0.00 79 1016.0
20260905081547 51 287 1.0 3.0 0.00 0.00 0.00 81 1015.9
20260905080045 50 243 0.0 1.0 0.00 0.00 0.00 82 1015.8
20260905074553 50 242 0.0 2.0 0.00 0.00 0.00 82 1015.6
20260905073057 49 242 1.0 3.0 0.00 0.00 0.00 84 1015.5
20260905071537 49 280 2.0 3.0 0.00 0.00 0.00 83 1015.3
20260905070034 49 304 1.0 3.0 0.00 0.00 0.00 83 1015.2
20260905064533 49 290 2.0 3.0 0.00 0.00 0.00 83 1015.1
20260905063031 49 298 1.0 2.0 0.00 0.00 0.00 83 1014.8
20260905061530 50 285 2.0 3.0 0.00 0.00 0.00 81 1014.8
20260905060029 51 286 2.0 3.0 0.00 0.00 0.00 81 1014.8
20260905054529 51 283 1.0 3.0 0.00 0.00 0.00 80 1014.9
20260905053034 53 285 3.0 5.0 0.00 0.00 0.00 79 1014.9
20260905051528 53 286 3.0 3.0 0.00 0.00 0.00 77 1014.8
20260905050034 54 281 2.0 3.0 0.00 0.00 0.00 75 1014.8
20260905044527 56 285 2.0 2.0 0.00 0.00 0.00 72 1014.8
20260905043028 56 287 1.0 2.0 0.00 0.00 0.00 72 1014.8
20260905041525 56 260 0.0 1.0 0.00 0.00 0.00 74 1014.7
20260905040025 56 248 1.0 3.0 0.00 0.00 0.00 73 1014.6
20260905034522 54 275 0.0 2.0 0.00 0.00 0.00 90 1014.4
20260905033030 53 295 2.0 4.0 0.00 0.00 0.00 89 1014.2
20260905031523 58 316 3.0 6.0 0.00 0.00 0.00 63 1014.0
20260905030014 58 271 4.0 7.0 0.00 0.01 0.00 61 1013.9
20260905024513 58 258 5.0 8.0 0.00 0.01 0.00 61 1013.7
20260905023037 59 269 5.0 7.0 0.00 0.01 0.00 59 1013.7
20260905021513 59 289 5.0 8.0 0.00 0.01 0.00 57 1013.7
20260905020016 60 269 5.0 9.0 0.00 0.01 0.00 54 1013.4
20260905014508 61 282 6.0 10.0 0.00 0.01 0.00 55 1013.3
20260905013007 62 274 8.0 11.0 0.00 0.01 0.00 53 1013.3
20260905011505 62 280 8.0 12.0 0.00 0.01 0.00 53 1013.1
20260905010004 64 293 8.0 12.0 0.00 0.01 0.00 51 1013.0
20260905004502 64 282 7.0 11.0 0.00 0.01 0.00 47 1013.0
20260905003059 65 293 6.0 12.0 0.00 0.01 0.00 46 1012.8
20260905001606 64 266 5.0 8.0 0.00 0.01 0.00 45 1012.7
20260905000113 64 287 3.0 6.0 0.00 0.01 0.00 45 1012.6
20260904234555 64 298 2.0 7.0 0.00 0.01 0.00 46 1012.6
20260904233055 64 307 0.0 7.0 0.00 0.01 0.00 46 1012.6
20260904231559 64 326 2.0 9.0 0.00 0.01 0.00 45 1012.6
20260904230054 63 333 5.0 8.0 0.00 0.01 0.00 48 1012.6
20260904224601 63 326 6.0 10.0 0.00 0.01 0.00 51 1012.6
20260904223056 64 274 5.0 13.0 0.00 0.01 0.00 49 1012.5